MDT,Max TemperatureF,Mean TemperatureF,Min TemperatureF,Max Dew PointF,MeanDew PointF,Min DewpointF,Max Humidity, Mean Humidity, Min Humidity, Max Sea Level PressureIn, Mean Sea Level PressureIn, Min Sea Level PressureIn, Max VisibilityMiles, Mean VisibilityMiles, Min VisibilityMiles, Max Wind SpeedMPH, Mean Wind SpeedMPH, Max Gust SpeedMPH,PrecipitationIn, CloudCover, Events, WindDirDegrees
2012-9-1,83,70,56,57,52,44,84,55,26,29.97,29.93,29.87,10,10,10,23,9,33,0.00,0,,197
2012-9-2,85,68,51,50,43,31,83,53,22,30.21,29.97,29.91,10,10,10,20,6,28,0.00,1,,182
2012-9-3,87,69,50,49,40,35,71,45,18,30.05,29.99,29.94,10,10,10,16,5,23,0.00,0,,187
2012-9-4,85,69,53,53,45,38,61,42,23,30.25,30.03,29.96,10,10,9,24,4,32,0.07,1,Rain-Thunderstorm,151
2012-9-5,88,69,50,52,45,26,83,48,13,30.08,29.98,29.91,10,10,10,17,3,24,0.00,0,,186
2012-9-6,84,70,55,52,47,41,72,51,29,30.13,29.93,29.88,10,10,10,18,7,25,0.00,1,,207
2012-9-7,87,70,52,54,48,39,86,55,23,30.10,30.02,29.96,10,10,9,15,5,20,0.00,1,,2
2012-9-8,86,68,50,43,36,29,63,39,14,30.29,30.09,29.99,10,10,10,14,4,18,0.00,0,,20
2012-9-9,88,67,45,40,34,28,58,37,16,30.26,30.01,29.91,10,10,10,16,4,22,0.00,1,,178
2012-9-10,81,68,55,53,47,33,60,43,26,30.16,29.92,29.84,10,10,10,21,9,25,0.00,0,,211
2012-9-11,68,62,55,56,55,52,100,82,63,30.17,29.99,29.90,10,9,2,16,6,22,0.49,6,Rain,215
2012-9-12,76,65,54,56,45,27,100,64,27,30.23,30.10,30.02,10,10,6,18,8,43,0.10,4,Rain,359
2012-9-13,79,60,40,38,31,23,70,42,14,30.34,30.26,30.19,10,10,10,8,2,10,0.00,0,,13
2012-9-14,81,61,41,38,33,27,73,44,15,30.32,30.22,30.14,10,10,10,7,1,13,0.00,0,,153
2012-9-15,84,65,46,43,35,29,66,40,14,30.21,30.13,30.06,10,10,10,9,2,13,0.00,0,,185
2012-9-16,81,63,45,44,32,28,61,38,15,30.13,30.05,29.97,10,10,10,17,4,24,0.00,0,,199
2012-9-17,81,64,46,36,29,20,56,36,15,30.19,30.02,29.95,10,10,10,16,7,21,0.00,0,,39
2012-9-18,81,59,36,28,24,18,59,34,9,30.19,30.11,30.06,10,10,10,8,2,12,0.00,0,,352
2012-9-19,83,60,37,35,26,18,64,37,9,30.20,30.09,30.02,10,10,10,9,2,13,0.00,0,,153
2012-9-20,85,64,42,33,27,22,53,32,11,30.26,30.07,29.99,10,10,10,13,3,15,0.00,0,,26
2012-9-21,85,64,42,33,27,19,57,34,10,30.13,30.03,29.97,10,10,10,10,3,14,0.00,0,,94
2012-9-22,85,64,42,34,30,23,53,34,14,30.23,30.02,29.97,10,10,10,22,4,28,0.00,0,,203
2012-9-23,81,68,55,39,36,32,51,36,21,30.04,29.99,29.94,10,10,10,22,9,29,0.00,0,,183
2012-9-24,76,64,51,48,41,34,50,38,25,30.17,29.98,29.82,10,10,7,25,8,35,0.00,4,Rain-Thunderstorm,155
2012-9-25,68,58,47,48,44,40,100,68,35,30.10,29.97,29.85,10,10,10,16,5,20,0.04,4,Rain,358
2012-9-26,73,55,36,43,40,36,92,61,29,30.11,30.01,29.95,10,10,10,12,4,16,0.00,0,,11
2012-9-27,76,58,39,42,39,35,92,58,23,30.12,30.05,29.99,10,10,10,9,2,13,0.00,0,,38
2012-9-28,79,60,40,41,33,23,82,48,13,30.09,30.00,29.93,10,10,10,9,2,13,0.00,0,,60
2012-9-29,82,61,39,35,31,25,67,40,13,30.11,30.05,29.99,10,10,10,15,3,17,0.00,0,,296
2012-9-30,83,62,41,36,30,26,62,38,13,30.19,30.13,30.09,10,10,10,18,3,29,0.00,0,,29